This is the latest recevied weather packets stored in our database for station/object IZ1UQG-1. If no packets are shown the sender has not sent any weather packets the latest 10 day(s).
| Time | Temp. | Humidity | Pressure | Rain* | Wind** | Luminosity | Snow |
|---|---|---|---|---|---|---|---|
| 1777157056 | 18.89° C | 51% | 1014.7 hPa | 157.73 mm | - | - | - |
| 1777156756 | 18.89° C | 50% | 1014.5 hPa | 108.46 mm | - | - | - |
| 1777156455 | 18.89° C | 50% | 1014.8 hPa | 133.35 mm | - | - | - |
| 1777156156 | 18.89° C | 50% | 1014.7 hPa | 143.26 mm | - | - | - |
| 1777155855 | 18.89° C | 50% | 1014.6 hPa | 152.4 mm | - | - | - |
| 1777155555 | 18.89° C | 50% | 1014.7 hPa | 111.51 mm | - | - | - |
| 1777155256 | 18.89° C | 50% | 1014.8 hPa | 151.38 mm | - | - | - |
| 1777154955 | 18.89° C | 50% | 1014.5 hPa | 155.7 mm | - | - | - |
| 1777154656 | 19.44° C | 49% | 1014.5 hPa | 147.32 mm | - | - | - |
| 1777154355 | 19.44° C | 49% | 1014.5 hPa | 80.01 mm | - | - | - |
| 1777154056 | 19.44° C | 49% | 1014.5 hPa | 139.95 mm | - | - | - |
| 1777153756 | 19.44° C | 49% | 1014.6 hPa | 123.95 mm | - | - | - |
| 1777153455 | 19.44° C | 49% | 1014.5 hPa | 137.92 mm | - | - | - |
| 1777153155 | 19.44° C | 48% | 1014.4 hPa | 98.55 mm | - | - | - |
| 1777152855 | 20° C | 48% | 1014.4 hPa | 167.64 mm | - | - | - |
| 1777152555 | 20° C | 48% | 1014.5 hPa | 144.78 mm | - | - | - |
| 1777152256 | 20° C | 48% | 1014.3 hPa | 137.41 mm | - | - | - |
| 1777151955 | 20° C | 48% | 1014.3 hPa | 82.04 mm | - | - | - |
| 1777151655 | 20° C | 48% | 1014.3 hPa | 113.03 mm | - | - | - |
| 1777151355 | 20° C | 47% | 1014.2 hPa | 99.57 mm | - | - | - |
| 1777151056 | 20° C | 47% | 1014 hPa | 106.43 mm | - | - | - |
| 1777150756 | 20° C | 47% | 1014.1 hPa | 47.24 mm | - | - | - |
| 1777150456 | 20.56° C | 47% | 1014 hPa | 102.87 mm | - | - | - |
| 1777150156 | 20.56° C | 47% | 1014 hPa | 79.5 mm | - | - | - |
| 1777149856 | 20.56° C | 46% | 1013.9 hPa | 90.93 mm | - | - | - |
* Rain latest hour (hover to see other rain measurements)
** Current wind speed in m/s (hover to see current wind gust speed)